TimeEDT,TemperatureF,Dew PointF,Humidity,Sea Level PressureIn,VisibilityMPH,Wind Direction,Wind SpeedMPH,Gust SpeedMPH,PrecipitationIn,Events,Conditions,WindDirDegrees,DateUTC
12:53 AM,64.9,62.1,90,29.92,10.0,Variable,4.6,-,N/A,,Clear,0,2013-07-28 04:53:00
1:53 AM,68.0,61.0,78,29.92,10.0,South,4.6,-,N/A,,Clear,180,2013-07-28 05:53:00
2:53 AM,66.9,62.1,84,29.91,10.0,South,5.8,-,N/A,,Clear,180,2013-07-28 06:53:00
3:53 AM,66.9,62.1,84,29.91,10.0,SSW,3.5,-,N/A,,Clear,200,2013-07-28 07:53:00
4:53 AM,64.9,62.1,90,29.92,10.0,WSW,3.5,-,N/A,,Mostly Cloudy,250,2013-07-28 08:53:00
5:53 AM,64.9,63.0,93,29.92,10.0,South,3.5,-,0.00,,Scattered Clouds,190,2013-07-28 09:53:00
6:53 AM,66.9,63.0,87,29.93,10.0,Calm,Calm,-,N/A,,Clear,0,2013-07-28 10:53:00
7:53 AM,69.1,64.0,84,29.93,10.0,SE,6.9,-,N/A,,Clear,140,2013-07-28 11:53:00
8:53 AM,70.0,64.0,81,29.93,10.0,SE,11.5,-,0.00,Rain,Light Rain,140,2013-07-28 12:53:00
9:53 AM,72.0,63.0,73,29.92,10.0,SSE,11.5,19.6,N/A,,Clear,160,2013-07-28 13:53:00
10:53 AM,73.0,64.9,76,29.91,10.0,SSE,10.4,-,N/A,,Clear,150,2013-07-28 14:53:00
11:53 AM,73.9,64.9,73,29.91,10.0,SE,13.8,-,N/A,,Clear,140,2013-07-28 15:53:00
12:53 PM,75.0,64.0,69,29.91,10.0,SE,17.3,-,N/A,,Partly Cloudy,140,2013-07-28 16:53:00
1:53 PM,75.9,64.9,69,29.91,10.0,SSE,17.3,-,N/A,,Clear,150,2013-07-28 17:53:00
2:53 PM,75.9,66.0,71,29.89,10.0,SSE,13.8,-,N/A,,Scattered Clouds,150,2013-07-28 18:53:00
3:53 PM,77.0,64.0,64,29.89,10.0,South,11.5,19.6,N/A,,Overcast,170,2013-07-28 19:53:00
4:53 PM,75.9,64.9,69,29.88,10.0,South,9.2,-,0.00,Rain,Light Rain,170,2013-07-28 20:53:00
5:53 PM,75.9,64.9,69,29.88,10.0,SSW,3.5,-,0.00,,Overcast,200,2013-07-28 21:53:00
6:53 PM,75.0,63.0,66,29.88,10.0,SSE,15.0,19.6,N/A,,Overcast,160,2013-07-28 22:53:00
7:53 PM,73.9,64.0,71,29.89,10.0,South,6.9,-,N/A,,Mostly Cloudy,180,2013-07-28 23:53:00
8:53 PM,73.0,63.0,71,29.91,10.0,South,4.6,-,N/A,,Mostly Cloudy,180,2013-07-29 00:53:00
9:53 PM,70.0,63.0,78,29.94,10.0,Calm,Calm,-,N/A,,Clear,0,2013-07-29 01:53:00
10:53 PM,68.0,62.1,81,29.94,10.0,Calm,Calm,-,N/A,,Partly Cloudy,0,2013-07-29 02:53:00
11:53 PM,68.0,61.0,78,29.94,10.0,Calm,Calm,-,N/A,,Overcast,0,2013-07-29 03:53:00